Total_Precipitation_Accumulation
-0.38 -0.41 -0.41 -0.47 -0.40 -0.40 -0.50 -0.40 -0.39 -0.39 -0.27 -0.17 -0.10 -0.02 -0.02 0.01 0.02 -0.00 -0.00 -0.03 -0.08 0.01 0.01 0.07 0.01 0.01 0.01 0.05 0.09 0.09 0.12 0.12 0.12 0.11 0.11 0.11 0.11 0.09 0.09 0.08 0.12 0.21 0.21 0.29 0.30 0.30 0.28 0.35 0.44 0.44 0.44 0.52 0.60 0.66 0.66 0.72 0.78 0.70 0.70 0.60 0.27 0.22 0.22 0.19 0.16 0.16 0.12 0.07 0.04
-0.39 -0.43 -0.43 -0.44 -0.41 -0.41 -0.51 -0.41 -0.44 -0.44 -0.31 -0.19 -0.06 0.05 0.05 0.09 0.05 -0.01 -0.01 -0.04 -0.08 -0.11 -0.11 0.05 0.01 -0.02 -0.02 0.03 0.06 0.06 0.08 0.11 0.13 0.13 0.13 0.12 0.14 0.12 0.12 0.11 0.14 0.22 0.22 0.30 0.29 0.29 0.25 0.23 0.26 0.26 0.33 0.45 0.58 0.69 0.69 0.64 0.73 0.75 0.75 0.58 0.38 0.21 0.21 0.16 0.11 0.11 0.08 0.06 0.03
-0.41 -0.45 -0.45 -0.47 -0.44 -0.44 -0.54 -0.44 -0.46 -0.46 -0.30 -0.16 -0.05 0.08 0.08 0.13 0.06 -0.02 -0.02 -0.04 -0.07 -0.11 -0.11 0.03 0.02 -0.03 -0.03 -0.01 0.02 0.02 0.05 0.08 0.12 0.16 0.16 0.14 0.15 0.14 0.14 0.13 0.17 0.24 0.24 0.33 0.31 0.31 0.23 0.21 0.26 0.26 0.28 0.38 0.53 0.66 0.66 0.66 0.71 0.77 0.77 0.61 0.36 0.25 0.25 0.18 0.09 0.09 0.04 0.02 0.01
-0.42 -0.43 -0.43 -0.46 -0.45 -0.45 -0.52 -0.40 -0.42 -0.42 -0.28 -0.13 0.03 0.13 0.13 0.15 0.07 -0.02 -0.02 -0.04 -0.10 -0.17 -0.17 0.00 0.03 -0.02 -0.02 -0.03 0.00 0.00 0.07 0.09 0.12 0.16 0.16 0.15 0.17 0.14 0.14 0.15 0.19 0.24 0.24 0.38 0.33 0.33 0.25 0.30 0.29 0.29 0.28 0.34 0.48 0.60 0.60 0.69 0.74 0.76 0.76 0.53 0.36 0.35 0.35 0.25 0.12 0.12 0.03 0.01 0.00
-0.41 -0.39 -0.39 -0.42 -0.50 -0.50 -0.49 -0.36 -0.37 -0.37 -0.23 -0.04 0.12 0.19 0.19 0.19 0.09 -0.03 -0.03 -0.08 -0.14 -0.20 -0.20 -0.04 0.03 -0.01 -0.01 -0.03 0.00 0.00 0.09 0.13 0.15 0.17 0.17 0.17 0.17 0.15 0.15 0.17 0.21 0.26 0.26 0.41 0.38 0.38 0.33 0.34 0.33 0.33 0.27 0.32 0.43 0.54 0.54 0.65 0.77 0.73 0.73 0.55 0.40 0.36 0.36 0.38 0.15 0.15 0.05 0.01 0.00
-0.41 -0.35 -0.35 -0.42 -0.58 -0.58 -0.49 -0.34 -0.35 -0.35 -0.14 0.06 0.18 0.23 0.23 0.22 0.08 -0.03 -0.03 -0.10 -0.13 -0.18 -0.18 -0.10 0.00 0.01 0.01 -0.03 -0.01 -0.01 0.09 0.15 0.20 0.16 0.16 0.18 0.19 0.18 0.18 0.23 0.27 0.28 0.28 0.32 0.42 0.42 0.44 0.37 0.35 0.35 0.35 0.35 0.45 0.49 0.49 0.61 0.74 0.69 0.69 0.58 0.46 0.39 0.39 0.39 0.17 0.17 0.06 0.01 0.01
-0.36 -0.33 -0.33 -0.45 -0.66 -0.66 -0.49 -0.36 -0.33 -0.33 -0.06 0.10 0.18 0.23 0.23 0.22 0.08 -0.03 -0.03 -0.07 -0.10 -0.20 -0.20 -0.17 -0.10 -0.03 -0.03 -0.04 -0.01 -0.01 0.03 0.14 0.19 0.18 0.18 0.21 0.21 0.21 0.21 0.26 0.29 0.28 0.28 0.31 0.43 0.43 0.44 0.38 0.36 0.36 0.38 0.36 0.43 0.44 0.44 0.51 0.63 0.59 0.59 0.59 0.49 0.41 0.41 0.37 0.29 0.29 0.07 0.02 0.01
-0.30 -0.29 -0.29 -0.48 -0.73 -0.73 -0.50 -0.35 -0.29 -0.29 -0.05 0.09 0.14 0.20 0.20 0.17 0.07 -0.05 -0.05 -0.09 -0.15 -0.15 -0.15 -0.22 -0.14 -0.03 -0.03 -0.04 -0.01 -0.01 0.02 0.15 0.18 0.17 0.17 0.19 0.25 0.23 0.23 0.29 0.31 0.29 0.29 0.30 0.45 0.45 0.44 0.41 0.37 0.37 0.41 0.39 0.38 0.40 0.40 0.41 0.51 0.53 0.53 0.55 0.49 0.41 0.41 0.35 0.23 0.23 0.13 0.03 0.01
-0.32 -0.35 -0.35 -0.58 -0.80 -0.80 -0.50 -0.32 -0.24 -0.24 -0.04 0.05 0.13 0.13 0.13 0.07 0.01 -0.06 -0.06 -0.16 -0.15 -0.19 -0.19 -0.25 -0.20 -0.07 -0.07 -0.03 -0.01 -0.01 0.03 0.14 0.18 0.18 0.18 0.21 0.30 0.31 0.31 0.33 0.33 0.31 0.31 0.35 0.38 0.38 0.46 0.43 0.39 0.39 0.39 0.38 0.39 0.41 0.41 0.41 0.43 0.45 0.45 0.52 0.49 0.41 0.41 0.30 0.17 0.17 0.09 0.04 0.01
-0.32 -0.39 -0.39 -0.66 -0.76 -0.76 -0.40 -0.26 -0.19 -0.19 -0.03 0.01 0.12 0.08 0.08 -0.00 -0.11 -0.11 -0.11 -0.15 -0.20 -0.26 -0.26 -0.29 -0.25 -0.12 -0.12 -0.02 -0.00 -0.00 0.04 0.14 0.16 0.17 0.17 0.24 0.28 0.32 0.32 0.33 0.35 0.34 0.34 0.39 0.38 0.38 0.50 0.45 0.46 0.46 0.42 0.38 0.41 0.44 0.44 0.42 0.38 0.36 0.36 0.44 0.52 0.39 0.39 0.25 0.12 0.12 0.06 0.02 0.01
-0.33 -0.54 -0.54 -0.62 -0.65 -0.65 -0.27 -0.18 -0.19 -0.19 -0.12 -0.14 -0.05 -0.19 -0.19 -0.26 -0.20 -0.14 -0.14 -0.21 -0.28 -0.29 -0.29 -0.29 -0.26 -0.15 -0.15 -0.04 0.01 0.01 0.03 0.06 0.16 0.18 0.18 0.27 0.29 0.32 0.32 0.33 0.34 0.34 0.34 0.38 0.38 0.38 0.45 0.49 0.47 0.47 0.44 0.43 0.42 0.46 0.46 0.43 0.37 0.31 0.31 0.35 0.43 0.32 0.32 0.18 0.08 0.08 0.04 0.01 0.00
-0.38 -0.51 -0.51 -0.58 -0.54 -0.54 -0.12 -0.12 -0.17 -0.17 -0.17 -0.19 -0.14 -0.22 -0.22 -0.31 -0.24 -0.15 -0.15 -0.26 -0.31 -0.29 -0.29 -0.30 -0.28 -0.21 -0.21 -0.08 -0.02 -0.02 0.03 0.08 0.17 0.20 0.20 0.29 0.33 0.32 0.32 0.33 0.31 0.35 0.35 0.39 0.40 0.40 0.44 0.51 0.47 0.47 0.43 0.42 0.42 0.44 0.44 0.43 0.34 0.30 0.30 0.29 0.30 0.31 0.31 0.10 0.04 0.04 0.02 0.00 0.00
-0.40 -0.55 -0.55 -0.62 -0.39 -0.39 -0.00 -0.09 -0.19 -0.19 -0.20 -0.21 -0.17 -0.24 -0.24 -0.29 -0.21 -0.19 -0.19 -0.29 -0.29 -0.32 -0.32 -0.33 -0.27 -0.24 -0.24 -0.11 -0.02 -0.02 0.05 0.10 0.25 0.26 0.26 0.33 0.33 0.33 0.33 0.36 0.34 0.41 0.41 0.42 0.47 0.47 0.46 0.49 0.47 0.47 0.43 0.40 0.39 0.42 0.42 0.39 0.33 0.31 0.31 0.28 0.22 0.16 0.16 0.09 0.02 0.02 0.00 0.00 0.00
-0.48 -0.55 -0.55 -0.59 -0.23 -0.23 0.03 -0.09 -0.21 -0.21 -0.27 -0.23 -0.24 -0.30 -0.30 -0.32 -0.22 -0.22 -0.22 -0.29 -0.30 -0.31 -0.31 -0.32 -0.28 -0.24 -0.24 -0.12 -0.01 -0.01 0.08 0.14 0.25 0.35 0.35 0.35 0.32 0.35 0.35 0.37 0.34 0.41 0.41 0.45 0.47 0.47 0.46 0.47 0.52 0.52 0.44 0.41 0.41 0.41 0.41 0.36 0.32 0.31 0.31 0.27 0.19 0.10 0.10 0.03 0.00 0.00 0.00 0.00 0.00
-0.64 -0.57 -0.57 -0.49 -0.00 -0.00 0.02 -0.12 -0.19 -0.19 -0.35 -0.28 -0.34 -0.35 -0.35 -0.34 -0.24 -0.28 -0.28 -0.29 -0.30 -0.27 -0.27 -0.29 -0.24 -0.19 -0.19 -0.13 0.01 0.01 0.10 0.21 0.35 0.42 0.42 0.36 0.35 0.36 0.36 0.36 0.35 0.43 0.43 0.48 0.47 0.47 0.48 0.53 0.50 0.50 0.49 0.47 0.44 0.42 0.42 0.33 0.29 0.26 0.26 0.24 0.17 0.08 0.08 0.01 0.00 0.00 0.00 0.00 0.00
-0.76 -0.53 -0.53 -0.36 0.13 0.13 -0.02 -0.14 -0.15 -0.15 -0.35 -0.32 -0.42 -0.38 -0.38 -0.39 -0.23 -0.29 -0.29 -0.29 -0.28 -0.26 -0.26 -0.27 -0.19 -0.10 -0.10 -0.05 0.06 0.06 0.20 0.30 0.44 0.38 0.38 0.39 0.38 0.36 0.36 0.41 0.40 0.45 0.45 0.48 0.49 0.49 0.54 0.58 0.58 0.58 0.55 0.52 0.45 0.34 0.34 0.27 0.23 0.20 0.20 0.19 0.14 0.05 0.05 0.01 0.00 0.00 0.00 0.00 0.00
-0.74 -0.52 -0.52 -0.23 0.17 0.17 -0.06 -0.12 -0.16 -0.16 -0.33 -0.37 -0.48 -0.42 -0.42 -0.39 -0.17 -0.29 -0.29 -0.28 -0.29 -0.25 -0.25 -0.22 -0.13 0.00 0.00 0.09 0.21 0.21 0.28 0.38 0.49 0.49 0.49 0.39 0.46 0.41 0.41 0.48 0.44 0.46 0.46 0.51 0.60 0.60 0.67 0.70 0.69 0.69 0.62 0.50 0.42 0.29 0.29 0.22 0.17 0.15 0.15 0.14 0.09 0.03 0.03 0.00 0.00 0.00 0.00 0.00 0.00
-0.62 -0.41 -0.41 0.09 0.16 0.16 -0.05 0.00 -0.07 -0.07 -0.32 -0.48 -0.48 -0.44 -0.44 -0.22 -0.06 -0.22 -0.22 -0.25 -0.21 -0.14 -0.14 -0.13 -0.08 0.00 0.00 0.26 0.42 0.42 0.39 0.42 0.47 0.47 0.47 0.52 0.56 0.64 0.64 0.67 0.64 0.58 0.58 0.65 0.83 0.83 0.87 0.84 0.69 0.69 0.55 0.42 0.24 0.14 0.14 0.10 0.07 0.05 0.05 0.03 0.02 0.00 0.00 0.00 0.00 0.00 0.00 0.00 0.00
-0.50 -0.20 -0.20 0.25 0.17 0.17 0.00 0.04 -0.06 -0.06 -0.35 -0.49 -0.46 -0.39 -0.39 -0.14 -0.09 -0.19 -0.19 -0.23 -0.20 -0.15 -0.15 -0.09 -0.05 0.04 0.04 0.23 0.37 0.37 0.43 0.44 0.46 0.53 0.53 0.52 0.76 0.68 0.68 0.67 0.71 0.73 0.73 0.78 0.88 0.88 0.88 0.71 0.53 0.53 0.40 0.31 0.18 0.13 0.13 0.06 0.03 0.01 0.01 0.01 0.00 0.00 0.00 0.00 0.00 0.00 0.00 0.00 0.00
-0.33 0.09 0.09 0.43 0.22 0.22 0.09 0.08 -0.05 -0.05 -0.38 -0.47 -0.47 -0.34 -0.34 -0.13 -0.15 -0.16 -0.16 -0.16 -0.16 -0.12 -0.12 -0.07 -0.04 0.10 0.10 0.24 0.37 0.37 0.47 0.48 0.56 0.60 0.60 0.88 0.93 0.77 0.77 0.71 0.77 0.81 0.81 0.87 0.87 0.87 0.67 0.47 0.36 0.36 0.31 0.23 0.14 0.10 0.10 0.03 0.01 0.00 0.00 0.00 0.00 0.00 0.00 0.00 0.00 0.00 0.00 0.00 0.00
-0.13 0.38 0.38 0.52 0.27 0.27 0.16 0.07 -0.16 -0.16 -0.40 -0.45 -0.42 -0.27 -0.27 -0.16 -0.14 -0.16 -0.16 -0.11 -0.13 -0.08 -0.08 -0.02 0.01 0.08 0.08 0.17 0.44 0.44 0.57 0.59 0.67 0.81 0.81 1.11 1.18 0.88 0.88 0.79 0.82 0.82 0.82 0.82 0.71 0.71 0.54 0.31 0.25 0.25 0.24 0.17 0.11 0.08 0.08 0.04 0.01 0.00 0.00 0.00 0.00 0.00 0.00 0.00 0.00 0.00 0.00 0.00 0.00
0.05 0.53 0.53 0.46 0.17 0.17 0.07 -0.10 -0.31 -0.31 -0.41 -0.40 -0.39 -0.23 -0.23 -0.11 -0.10 -0.10 -0.10 -0.05 -0.06 0.02 0.02 0.07 0.08 0.12 0.12 0.16 0.49 0.49 0.67 0.78 0.86 1.26 1.26 1.31 1.38 1.00 1.00 0.84 0.81 0.72 0.72 0.61 0.45 0.45 0.32 0.22 0.19 0.19 0.21 0.12 0.08 0.05 0.05 0.03 0.02 0.00 0.00 0.00 0.00 0.00 0.00 0.00 0.00 0.00 0.01 0.00 0.00
0.13 0.45 0.45 0.25 -0.01 -0.01 -0.13 -0.28 -0.39 -0.39 -0.38 -0.37 -0.33 -0.14 -0.14 -0.07 -0.05 -0.04 -0.04 0.02 0.02 0.09 0.09 0.16 0.20 0.20 0.20 0.22 0.54 0.54 0.77 1.00 1.31 1.39 1.39 1.37 1.40 1.17 1.17 0.74 0.68 0.55 0.55 0.39 0.27 0.27 0.20 0.21 0.13 0.13 0.07 0.05 0.05 0.04 0.04 0.03 0.01 0.01 0.01 0.00 0.00 0.00 0.00 0.00 0.00 0.00 0.01 0.00 0.00
0.05 0.30 0.30 0.04 -0.18 -0.18 -0.24 -0.38 -0.37 -0.37 -0.38 -0.34 -0.24 -0.07 -0.07 -0.04 0.00 0.01 0.01 0.05 0.09 0.19 0.19 0.26 0.28 0.32 0.32 0.30 0.59 0.59 0.91 1.17 1.33 1.34 1.34 1.29 1.20 0.95 0.95 0.67 0.53 0.42 0.42 0.28 0.19 0.19 0.15 0.17 0.16 0.16 0.03 0.02 0.02 0.01 0.01 0.01 0.01 0.00 0.00 0.00 0.00 0.00 0.00 0.00 0.00 0.00 0.00 0.00 0.00
-0.01 0.18 0.18 -0.09 -0.26 -0.26 -0.33 -0.39 -0.34 -0.34 -0.34 -0.29 -0.19 -0.04 -0.04 -0.02 0.03 0.03 0.03 0.11 0.19 0.25 0.25 0.30 0.30 0.41 0.41 0.46 0.56 0.56 0.96 1.05 1.12 1.10 1.10 1.03 0.88 0.75 0.75 0.69 0.44 0.34 0.34 0.23 0.16 0.16 0.12 0.12 0.09 0.09 0.01 0.00 0.00 0.00 0.00 0.00 0.00 0.00 0.00 0.00 0.00 0.00 0.00 0.00 0.00 0.00 0.00 0.00 0.00
-0.04 0.15 0.15 -0.20 -0.34 -0.34 -0.39 -0.38 -0.32 -0.32 -0.29 -0.24 -0.15 -0.05 -0.05 -0.02 0.04 0.03 0.03 0.12 0.22 0.28 0.28 0.32 0.36 0.44 0.44 0.61 0.83 0.83 0.90 0.94 0.90 0.79 0.79 0.69 0.66 0.61 0.61 0.60 0.36 0.28 0.28 0.19 0.13 0.13 0.08 0.05 0.00 0.00 0.00 -0.00 -0.00 -0.00 -0.00 -0.00 0.00 0.00 0.00 0.00 0.00 0.00 0.00 0.00 0.00 0.00 0.00 0.00 0.00
-0.04 0.05 0.05 -0.28 -0.36 -0.36 -0.41 -0.37 -0.28 -0.28 -0.25 -0.20 -0.14 -0.07 -0.07 0.00 0.04 0.03 0.03 0.11 0.27 0.34 0.34 0.36 0.41 0.47 0.47 0.69 0.89 0.89 0.79 0.78 0.74 0.62 0.62 0.57 0.55 0.50 0.50 0.47 0.40 0.22 0.22 0.14 0.07 0.07 0.02 0.01 0.00 0.00 0.00 -0.00 -0.01 -0.01 -0.01 -0.00 0.00 -0.00 -0.00 0.00 0.00 0.00 0.00 0.00 0.00 0.00 0.00 0.00 0.00
0.00 -0.09 -0.09 -0.33 -0.38 -0.38 -0.38 -0.34 -0.24 -0.24 -0.22 -0.17 -0.11 -0.07 -0.07 0.02 0.05 0.03 0.03 0.03 0.28 0.38 0.38 0.43 0.45 0.58 0.58 0.79 0.82 0.82 0.67 0.59 0.60 0.58 0.58 0.54 0.47 0.37 0.37 0.27 0.23 0.17 0.17 0.07 0.01 0.01 0.00 0.00 0.00 0.00 -0.00 -0.00 -0.01 -0.01 -0.01 -0.00 -0.00 0.00 0.00 0.00 0.00 0.00 0.00 0.00 0.00 0.00 0.00 0.00 0.00
-0.03 -0.20 -0.20 -0.34 -0.35 -0.35 -0.33 -0.29 -0.21 -0.21 -0.17 -0.14 -0.09 -0.05 -0.05 0.05 0.08 0.05 0.05 0.07 0.28 0.38 0.38 0.46 0.49 0.64 0.64 0.79 0.71 0.71 0.61 0.47 0.51 0.54 0.54 0.46 0.30 0.19 0.19 0.13 0.11 0.07 0.07 0.02 0.00 0.00 0.00 -0.00 -0.00 -0.00 -0.00 -0.00 -0.01 -0.01 -0.01 0.00 0.00 0.00 0.00 0.00 0.00 0.00 0.00 0.00 0.00 0.00 0.00 0.00 0.00
-0.18 -0.25 -0.25 -0.33 -0.32 -0.32 -0.30 -0.27 -0.15 -0.15 -0.11 -0.08 -0.06 -0.02 -0.02 0.08 0.11 0.08 0.08 0.11 0.26 0.37 0.37 0.39 0.47 0.63 0.63 0.69 0.63 0.63 0.62 0.49 0.39 0.41 0.41 0.32 0.16 0.08 0.08 0.06 0.04 0.02 0.02 0.01 0.00 0.00 -0.00 -0.00 -0.00 -0.00 -0.00 -0.01 -0.01 -0.01 -0.01 0.00 0.00 0.00 0.00 0.00 0.00 0.00 0.00 0.00 0.00 0.00 0.00 0.00 0.00
-0.21 -0.27 -0.27 -0.26 -0.28 -0.28 -0.24 -0.19 -0.09 -0.09 -0.08 -0.03 -0.03 0.02 0.02 0.10 0.13 0.14 0.14 0.30 0.45 0.49 0.49 0.46 0.49 0.55 0.55 0.59 0.62 0.62 0.59 0.42 0.27 0.25 0.25 0.19 0.09 0.04 0.04 0.03 0.01 0.01 0.01 0.00 0.00 0.00 -0.00 -0.00 -0.00 -0.00 -0.00 -0.01 -0.01 -0.00 -0.00 0.00 -0.00 0.00 0.00 0.00 0.00 0.00 0.00 0.00 0.00 0.00 0.00 0.00 0.00
-0.20 -0.21 -0.21 -0.17 -0.15 -0.15 -0.13 -0.08 -0.04 -0.04 -0.05 -0.02 -0.01 0.07 0.07 0.14 0.13 0.21 0.21 0.41 0.57 0.68 0.68 0.62 0.49 0.50 0.50 0.54 0.56 0.56 0.48 0.31 0.19 0.14 0.14 0.13 0.07 0.02 0.02 0.01 0.01 0.00 0.00 0.00 -0.00 -0.00 -0.00 -0.01 -0.00 -0.00 -0.01 -0.01 0.00 0.01 0.01 0.00 -0.00 0.00 0.00 0.00 0.00 0.00 0.00 0.00 0.00 0.00 0.00 0.00 0.00
-0.13 -0.14 -0.14 -0.11 -0.12 -0.12 -0.09 -0.05 -0.01 -0.01 -0.03 -0.02 0.06 0.15 0.15 0.14 0.14 0.33 0.33 0.58 0.66 0.69 0.69 0.55 0.45 0.43 0.43 0.41 0.40 0.40 0.32 0.21 0.11 0.10 0.10 0.08 0.06 0.02 0.02 0.01 0.00 -0.00 -0.00 0.01 -0.00 -0.00 -0.01 -0.00 0.01 0.01 0.01 0.01 0.01 -0.00 -0.00 0.00 0.00 0.00 0.00 0.00 0.00 0.00 0.00 0.00 0.00 0.00 0.00 0.00 0.00
-0.08 -0.07 -0.07 -0.09 -0.11 -0.11 -0.08 -0.01 -0.03 -0.03 -0.05 0.01 0.13 0.17 0.17 0.14 0.22 0.49 0.49 0.72 0.79 0.61 0.61 0.47 0.40 0.35 0.35 0.28 0.22 0.22 0.18 0.11 0.07 0.08 0.08 0.08 0.05 0.01 0.01 0.00 -0.00 0.00 0.00 0.02 0.02 0.02 0.02 0.02 0.03 0.03 0.01 0.01 0.01 0.02 0.02 0.00 0.00 -0.00 -0.00 -0.00 0.00 0.00 0.00 0.00 0.00 0.00 0.00 0.00 0.00
-0.03 -0.08 -0.08 -0.09 -0.10 -0.10 -0.07 -0.03 -0.05 -0.05 -0.03 0.10 0.16 0.20 0.20 0.25 0.39 0.59 0.59 0.76 0.74 0.49 0.49 0.40 0.32 0.25 0.25 0.20 0.13 0.13 0.09 0.07 0.06 0.09 0.09 0.09 0.04 0.01 0.01 0.00 0.00 0.00 0.00 0.03 0.03 0.03 0.03 0.02 0.04 0.04 0.04 0.02 0.02 0.01 0.01 -0.00 0.00 -0.00 -0.00 -0.00 -0.00 0.00 0.00 0.00 0.00 0.00 0.00 0.00 0.00
-0.01 -0.08 -0.08 -0.10 -0.11 -0.11 -0.08 -0.06 -0.04 -0.04 0.02 0.13 0.18 0.30 0.30 0.43 0.57 0.67 0.67 0.69 0.59 0.38 0.38 0.30 0.19 0.17 0.17 0.14 0.09 0.09 0.06 0.06 0.08 0.09 0.09 0.11 0.04 0.02 0.02 0.03 0.04 0.10 0.10 0.09 0.09 0.09 0.10 0.10 0.10 0.10 0.09 0.03 0.01 0.00 0.00 0.00 0.00 -0.00 -0.00 -0.00 -0.00 0.00 0.00 0.00 0.00 0.00 0.00 0.00 0.00
0.02 -0.09 -0.09 -0.11 -0.07 -0.07 -0.05 -0.02 0.01 0.01 0.10 0.14 0.22 0.41 0.41 0.60 0.70 0.75 0.75 0.57 0.40 0.29 0.29 0.13 0.10 0.13 0.13 0.08 0.06 0.06 0.06 0.07 0.09 0.10 0.10 0.11 0.11 0.04 0.04 0.08 0.10 0.18 0.18 0.18 0.17 0.17 0.16 0.13 0.10 0.10 0.08 0.06 0.04 0.02 0.02 0.01 0.01 0.01 0.01 0.01 0.00 0.00 0.00 0.01 0.01 0.01 0.00 0.00 0.00
0.04 -0.04 -0.04 -0.03 0.01 0.01 0.02 0.01 0.05 0.05 0.12 0.19 0.33 0.56 0.56 0.68 0.72 0.64 0.64 0.39 0.26 0.16 0.16 0.05 0.06 0.09 0.09 0.06 0.05 0.05 0.07 0.09 0.11 0.13 0.13 0.13 0.12 0.08 0.08 0.10 0.17 0.20 0.20 0.20 0.18 0.18 0.14 0.09 0.06 0.06 0.05 0.04 0.04 0.04 0.04 0.03 0.03 0.03 0.03 0.03 0.02 0.02 0.02 0.01 0.00 0.00 0.00 0.00 0.00
0.16 0.11 0.11 0.12 0.12 0.12 0.10 0.10 0.15 0.15 0.22 0.30 0.54 0.73 0.73 0.65 0.50 0.39 0.39 0.25 0.13 0.07 0.07 0.03 0.04 0.06 0.06 0.07 0.07 0.07 0.10 0.12 0.14 0.18 0.18 0.16 0.11 0.08 0.08 0.08 0.15 0.16 0.16 0.14 0.11 0.11 0.07 0.04 0.03 0.03 0.02 0.03 0.03 0.03 0.03 0.02 0.02 0.02 0.02 0.02 0.02 0.02 0.02 0.01 0.00 0.00 0.00 0.00 0.00
0.30 0.29 0.29 0.28 0.25 0.25 0.21 0.29 0.39 0.39 0.43 0.58 0.80 0.66 0.66 0.40 0.26 0.20 0.20 0.12 0.06 0.02 0.02 0.00 0.05 0.06 0.06 0.05 0.07 0.07 0.10 0.12 0.16 0.20 0.20 0.16 0.10 0.08 0.08 0.08 0.09 0.07 0.07 0.05 0.03 0.03 0.02 0.02 0.02 0.02 0.02 0.02 0.02 0.02 0.02 0.01 0.01 0.01 0.01 0.01 0.01 0.01 0.01 0.01 0.00 0.00 0.00 0.00 0.00
0.41 0.45 0.45 0.44 0.39 0.39 0.36 0.52 0.66 0.66 0.73 0.77 0.57 0.32 0.32 0.16 0.10 0.07 0.07 0.05 0.03 0.01 0.01 0.01 0.06 0.06 0.06 0.06 0.05 0.05 0.09 0.12 0.12 0.12 0.12 0.11 0.11 0.10 0.10 0.06 0.04 0.01 0.01 0.00 0.00 0.00 0.01 0.01 0.01 0.01 0.01 0.01 0.01 0.00 0.00 0.00 0.00 0.00 0.00 0.00 0.01 0.01 0.01 0.01 0.00 0.00 0.00 0.00 0.00